Regional Weather Roundup
Issued by NWS

Home | Current Version | Previous Version | Text Only | Print | Product List | Glossary Off
Versions: 1 2 3 4 5 6 7 8 9 10 11 12 13 14 15 16 17 18 19 20 21 22 23 24 25 26 27 28 29 30 31 32 33 34 35 36 37 38 39 40 41 42 43 44 45 46 47 48 49 50

000
ASUS43 KLOT 250612
RWRIL

ILLINOIS REGIONAL WEATHER ROUNDUP
NATIONAL WEATHER SERVICE CHICAGO/ROMEOVILLE IL
100 AM CDT MON MAY 25 2015

NOTE: "FAIR" INDICATES FEW OR NO CLOUDS BELOW 12,000 FEET WITH NO
SIGNIFICANT WEATHER AND/OR OBSTRUCTIONS TO VISIBILITY.

* THESE STATIONS ARE NOT UNDER NWS QUALITY CONTROL. THEY ALSO MAY NOT
  REPORT WEATHER SUCH AS PRECIPITATION OR FOG.

ILZ001-002-007-009-015-016-024-250700-
NORTHWEST ILLINOIS

CITY           SKY/WX    TMP DP  RH WIND       PRES   REMARKS
MOLINE         CLOUDY    68  64  87 SE7       29.81F
6HR MIN TEMP:  68; 6HR MAX TEMP:  72; 6HR PCP:  0.01;

STERLING*      CLOUDY    66  64  94 SW5       29.85F
SAVANNA*       DRIZZLE   68  65  92 S9        29.83F
$$

ILZ003-004-008-010-011-017-018-250700-
NORTH CENTRAL ILLINOIS

CITY           SKY/WX    TMP DP  RH WIND       PRES   REMARKS
ROCKFORD       LGT RAIN  68  65  90 S15       29.88F FOG
6HR MIN TEMP:  65; 6HR MAX TEMP:  69; 6HR PCP:  0.58;

FREEPORT*      DRIZZLE   67  65  94 S15       29.86F
ROCHELLE*      LGT RAIN  66  66  99 S5        29.88S
DE KALB*       CLOUDY    68  62  81 S16       29.87F
PERU*          CLOUDY    69  65  89 W5        29.87F
$$

ILZ005-006-012>014-019>023-250700-
NORTHEAST ILLINOIS

CITY           SKY/WX    TMP DP  RH WIND       PRES   REMARKS
CHICAGO-OHARE  MOCLDY    70  62  76 S12G20    29.89F
6HR MIN TEMP:  63; 6HR MAX TEMP:  70; 6HR PCP: TRACE;

CHICAGO-MIDWAY CLOUDY    76  63  64 S16G24    29.90F
6HR MIN TEMP:  65; 6HR MAX TEMP:  76; 6HR PCP:  0.01;

AURORA         MOCLDY    73  61  65 S16       29.88F
6HR MIN TEMP:  70; 6HR MAX TEMP:  74;

LANSING*       PTCLDY    73  59  61 S13       29.92F
JOLIET*        MOCLDY    75  64  69 S12G20    29.89F
WAUKEGAN       MOCLDY    66  61  84 S8        29.88F
6HR MIN TEMP:  55; 6HR MAX TEMP:  66; 6HR PCP: TRACE;

DUPAGE AIRPORT MOCLDY    72  62  71 S17G23    29.88F
6HR MIN TEMP:  66; 6HR MAX TEMP:  72; 6HR PCP: TRACE;

KANKAKEE*      CLOUDY    73  63  69 S16G24    29.92F
WHEELING       MOCLDY    68  62  81 S10       29.90F
6HR MIN TEMP:  61; 6HR MAX TEMP:  68; 6HR PCP: TRACE;

MORRIS*        CLOUDY    73  63  70 S16G22    29.87F
ROMEOVILLE*    CLOUDY    72  61  68 S17       29.89F
NORTHERLY ISL    N/A     74  60  61 S14         N/A
$$

LMZ740>746-250700-
SOUTHERN LAKE MICHIGAN

STATION/POSITION SKY/WX   TEMP    WIND        PRES    VSBY  WAVE
                          AIR SEA DIR/SP/G                  HT/PER
                          (F)     (DEG/KT/KT) (MB)    (MI)  (FT/S)
SOUTHERN BUOY              47 38  170/ 10/ 12 1013.3F         1
HARRISON CRIB              71     180/ 21/ 24   N/A
BURNHAM HARBOR             74     180/ 15/ 18   N/A
CALUMET HARBOR             75     170/ 12/ 15   N/A
BURNS HARBOR               75     180/ 12/ 20 1014.6F
MICHIGAN CITY              75     150/ 13/ 17   N/A
MICHIGAN CITY 6N           68 53  190/ 14/ 21   N/A           1/ 2
ST. JOSEPH                 67 54  190/ 12/ 14   N/A           2/ 3
$$

ILZ025>027-034>036-040-047-049-050-058-095>099-250700-
WEST-CENTRAL ILLINOIS

CITY           SKY/WX    TMP DP  RH WIND       PRES   REMARKS
QUINCY         CLOUDY    69  66  90 S14       29.79S
GALESBURG*     CLOUDY    66  65  96 SE5       29.82F
MACOMB*        CLOUDY    67  66  97 SE12      29.83F
JACKSONVILLE*  CLOUDY    71  66  84 SE15      29.85F
PITTSFIELD*    CLOUDY    69  65  86 S13G20    29.83F
$$

ILZ028>032-037-038-041>044-048-051>054-059>061-250700-
CENTRAL ILLINOIS

CITY           SKY/WX    TMP DP  RH WIND       PRES   REMARKS
PONTIAC        LGT RAIN  76  66  70 S20G31    29.90F
BLOOMINGTON    LGT RAIN  66  63  88 S25G33    29.90F
DECATUR        CLOUDY    67  64  90 S9        29.93F
PEORIA         LGT RAIN  70  66  87 SE8       29.86F
6HR MIN TEMP:  70; 6HR MAX TEMP:  81; 6HR PCP:  0.06;

LACON*         RAIN      68  66  92 CALM      29.85F
LINCOLN*       LGT RAIN  68  63  84 S13       29.87F
SPRINGFIELD    CLOUDY    69  67  93 S15       29.88F
6HR MIN TEMP:  69; 6HR MAX TEMP:  80; 6HR PCP:  0.21;

TAYLORVILLE    CLOUDY    64  63  94 SE10      29.91F
$$

ILZ033-039-045-046-055>057-062-063-250700-
EAST-CENTRAL ILLINOIS

CITY           SKY/WX    TMP DP  RH WIND       PRES   REMARKS
CHAMPAIGN      LGT RAIN  70  63  78 S18       29.95S
DANVILLE*      CLOUDY    74  63  66 S16       29.94F
RANTOUL*       CLOUDY    76  64  65 S26G37    29.95R
MATTOON        CLOUDY    68  65  90 S6        29.96F
PARIS*         CLOUDY    75  64  68 S16       29.98F
$$

ILZ079-100>102-250700-
SOUTHWEST ILLINOIS

CITY           SKY/WX    TMP DP  RH WIND       PRES   REMARKS
ALTON          CLOUDY    68  68 100 SE18G25   29.90S
BELLEVILLE     CLOUDY    68  68 100 S14       29.90S
CAHOKIA*       LGT RAIN  70  65  84 S13G23    29.89F
SPARTA*        CLOUDY    67  64  90 S12G18    29.94S
$$

ILZ064>066-069>071-074>076-080>082-084>086-088>090-092>094-250700-
SOUTH-CENTRAL ILLINOIS

CITY           SKY/WX    TMP DP  RH WIND       PRES   REMARKS
CARBONDALE     CLOUDY    69  66  90 S13       29.96F
6HR MIN TEMP:  67; 6HR MAX TEMP:  81; 6HR PCP:  0.46;

CAIRO*         CLOUDY    70  67  92 S13G20    29.99S
EFFINGHAM*     LGT RAIN  67  64  90 S8G16     29.98F
MARION         CLOUDY    72  68  88 S12G17    29.98S
MT. VERNON     CLOUDY    70  64  83 S10       29.97F
CENTRALIA*     CLOUDY    66  64  91 S12       29.95F
SALEM*         CLOUDY    71  65  83 S9G16     29.96F
METROPOLIS*    CLOUDY    72  67  84 S8G17     30.00F
$$

ILZ067-068-072-073-078-083-087-091-250700-
SOUTHEAST ILLINOIS

CITY           SKY/WX    TMP DP  RH WIND       PRES   REMARKS
LAWRENCEVILLE  CLOUDY    75  64  68 S17G28    30.01R
FLORA*         CLOUDY    68  64  86 W5        29.98F
FAIRFIELD*     CLOUDY    73  68  83 S9        29.97F
HARRISBURG*    CLOUDY    74  64  71 S12G21    30.00F
ROBINSON*      CLOUDY    75  64  67 S15G23    30.00S
CARMI*         CLOUDY    73  61  64 S18G25    30.00F
$$

ABBREVIATIONS USED IN REMARKS
   TC - TEMPERATURE IN CELSIUS
  WCI - WIND CHILL INDEX
   HX - HEAT INDEX
  VSB - VISIBILITY
$$




USA.gov is the U.S. government's official web portal to all federal, state and local government web resources and services.